Home   Weather   São Tomé   Past weeks
Flag for Sao Tome and Principe

Past Weather in São Tomé, Sao Tome and Principe — Yesterday and Last 2 Weeks

Now
79 °F

Passing clouds.


Feels Like: 82 °F
Forecast: N/A
Wind: 16 mph from South

Location: S. Tome

Current Time: Jun 15, 2019 at 9:31:10 pm

Latest Report: Jun 15, 2019 at 8:00 pm


Visibility: N/A

Pressure: 29.98 "Hg

Humidity: 84%

Dew Point: 73 °F

Location of São ToméLocation

Past Weather in São Tomé — Graph

°F

São Tomé Temperature Yesterday

Maximum temperature yesterday: 84 °F (at 11:00 am)
Minimum temperature yesterday: 77 °F (at 9:00 pm)
Average temperature yesterday: 82 °F

High & Low Weather Summary for the Past Weeks

 TemperatureHumidityPressure
High90 °F (Jun 12, 3:00 pm)100% (Jun 10, 12:00 am)30.01 "Hg (Jun 10, 12:00 am)
Low72 °F (Jun 7, 6:00 am)66% (Jun 3, 11:00 am)29.83 "Hg (Jun 1, 3:00 pm)
Average81 °F81%29.94 "Hg
* Reported May 31 11:00 pm — Jun 15 8:00 pm, São Tomé. Weather by CustomWeather, © 2019

Note: Actual official high and low records may vary slightly from our data, if they occured in-between our weather recording intervals... More about our weather records

Advertising

São Tomé Weather History for the Previous 24 Hours

Scroll right to see more
 ConditionsComfort  
Time TempWeatherWind HumidityBarometerVisibility
8:00 pm
Sat, Jun 15
79 °FPassing clouds.16 mph84%29.98 "HgN/A
7:00 pm79 °FPassing clouds.16 mph79%29.95 "HgN/A
6:00 pm79 °FPassing clouds.12 mph84%29.92 "HgN/A
5:00 pm81 °FPartly sunny.14 mph79%29.92 "HgN/A
4:00 pm82 °FPartly sunny.12 mph79%29.89 "HgN/A
3:00 pm82 °FPartly sunny.15 mph79%29.89 "HgN/A
12:00 pm84 °FPassing clouds.18 mph74%29.95 "HgN/A
11:00 am86 °FPassing clouds.13 mph70%29.98 "HgN/A
10:00 am84 °FPassing clouds.5 mph74%29.98 "HgN/A
9:00 am82 °FPassing clouds.3 mph74%30.01 "HgN/A
8:00 am81 °FPartly sunny.3 mph79%29.98 "HgN/A
7:00 am79 °FPassing clouds.5 mph89%29.98 "HgN/A
6:00 am79 °FPassing clouds.5 mph94%29.95 "HgN/A
2:00 am77 °FPassing clouds.5 mph94%29.95 "HgN/A
1:00 am79 °FPassing clouds.9 mph84%29.95 "HgN/A
12:00 am79 °FPassing clouds.14 mph84%29.98 "HgN/A
10:00 pm
Fri, Jun 14
77 °FPassing clouds.12 mph83%30.01 "HgN/A
9:00 pm77 °FPassing clouds.7 mph83%29.98 "HgN/A
Weather by CustomWeather, © 2019

See weather overview